Погода в Виловатом

Россия / Самарская область     53°01′44″N   51°26′48″E
темп.,
°C
ветер,
м/с
пор.,
м/с
влажн.,
%
обл.,
%
осадки,
мм/ч
давл.,
гПа
погр.,
м
3 марта, ср
ср301:00−1юз4898100 0.9 1002315
04:00−2з3398100 1.4 100275
07:00−4зсз2395100 0.1 100130
10:00−3зсз3594100 0.1 1003207
13:00−2зсз469591 0.1 1003480
16:00−2зсз589095 0.3 1004874
19:00−6зсз41092100 0.1 1005275
22:00−7зсз5119399 0.2 1007390
4 марта, чт
чт401:00−11з459787 0.0 100783
04:00−13зюз479682 0.1 1009113
07:00−13юз479665 0.0 1008127
10:00−9юз7129347 0.0 1008356
13:00−6юз81393100 0.1 1006607
16:00−2юз91690100 0.2 1004913
19:000зюз91690100 0.8 1002946
22:000зюз101597100 1.2 1003884
5 марта, пт
пт501:000зюз91597100 0.9 1003842
04:000юз81489100 1.3 1003712
07:00−1юз81497100 0.5 1003619
10:00−1юз81397100 2.8 1002750
13:00+1юз614100100 1.8 1001621
16:00+1зюз816100100 2.9 1002685
19:00−3сз51094100 0.6 1005439
22:00−9сз489290 0.6 1010143
6 марта, сб
сб601:00−15ссз238728 0.0 101320
04:00−16св128564 0.0 101520
07:00−14в3386100 0.0 101541
10:00−11в4684100 0.0 1014248
13:00−8в3586100 0.1 1011345
16:00−7св2392100 0.3 1010293
19:00−9с3494100 0.3 100989
22:00−14зсз228979 0.3 101120
7 марта, вс
вс701:00−14з359733 0.1 101197
04:00−15з359764 0.1 101288
07:00−17з469771 0.0 101394
10:00−15зсз469367 0.0 1015266
13:00−12зюз348986 0.0 1016373
16:00−12юз469072 0.0 1015322
19:00−15ююз510909 0.0 1014162
22:00−11ююз6138855 0.0 1012389